| time (UTC) | temp F | wind direction | speed knots | gust knots | rain 1hr in | rain 24hr in | rain mn in | humidity % | barometer mb |
| 20260505213820 | 71 | 128 | 3.5 | 9.6 | 0.00 | 0.00 | 0.00 | 49 | 1004.1 |
| 20260505213318 | 71 | 225 | 4.3 | 12.2 | 0.00 | 0.00 | 0.00 | 49 | 1004.3 |
| 20260505212813 | 71 | 243 | 7.0 | 11.3 | 0.00 | 0.00 | 0.00 | 48 | 1004.3 |
| 20260505212311 | 72 | 165 | 4.3 | 9.6 | 0.00 | 0.00 | 0.00 | 48 | 1004.2 |
| 20260505211807 | 72 | 143 | 7.0 | 13.0 | 0.00 | 0.00 | 0.00 | 48 | 1004.1 |
| 20260505211305 | 72 | 242 | 7.8 | 11.3 | 0.00 | 0.00 | 0.00 | 48 | 1004.2 |
| 20260505210801 | 72 | 151 | 5.2 | 7.0 | 0.00 | 0.00 | 0.00 | 48 | 1004.1 |
| 20260505210258 | 73 | 256 | 3.5 | 7.8 | 0.00 | 0.00 | 0.00 | 48 | 1004.0 |
| 20260505205755 | 73 | 208 | 5.2 | 12.2 | 0.00 | 0.00 | 0.00 | 47 | 1004.1 |
| 20260505205253 | 73 | 167 | 8.7 | 16.5 | 0.00 | 0.00 | 0.00 | 47 | 1004.0 |
| 20260505204749 | 74 | 124 | 7.8 | 19.1 | 0.00 | 0.00 | 0.00 | 46 | 1003.9 |
| 20260505204248 | 74 | 122 | 2.6 | 11.3 | 0.00 | 0.00 | 0.00 | 46 | 1003.8 |
| 20260505203744 | 74 | 133 | 4.3 | 7.8 | 0.00 | 0.00 | 0.00 | 45 | 1003.7 |
| 20260505203241 | 74 | 174 | 7.8 | 9.6 | 0.00 | 0.00 | 0.00 | 45 | 1003.8 |
| 20260505202737 | 75 | 152 | 5.2 | 11.3 | 0.00 | 0.00 | 0.00 | 45 | 1003.7 |
| 20260505202233 | 75 | 185 | 3.5 | 9.6 | 0.00 | 0.00 | 0.00 | 45 | 1003.8 |
| 20260505201730 | 75 | 125 | 2.6 | 7.0 | 0.00 | 0.00 | 0.00 | 45 | 1004.0 |
| 20260505201228 | 75 | 195 | 5.2 | 18.2 | 0.00 | 0.00 | 0.00 | 45 | 1003.9 |
| 20260505200726 | 75 | 161 | 7.0 | 11.3 | 0.00 | 0.00 | 0.00 | 45 | 1004.1 |
| 20260505200222 | 76 | 141 | 7.0 | 12.2 | 0.00 | 0.00 | 0.00 | 44 | 1003.8 |
| 20260505195718 | 77 | 221 | 3.5 | 6.1 | 0.00 | 0.00 | 0.00 | 44 | 1004.2 |
| 20260505195216 | 77 | 150 | 6.1 | 13.9 | 0.00 | 0.00 | 0.00 | 44 | 1004.1 |
| 20260505194713 | 77 | 128 | 2.6 | 7.0 | 0.00 | 0.00 | 0.00 | 44 | 1004.1 |
| 20260505194209 | 77 | 203 | 10.4 | 13.0 | 0.00 | 0.00 | 0.00 | 42 | 1004.3 |
| 20260505193705 | 77 | 159 | 3.5 | 7.8 | 0.00 | 0.00 | 0.00 | 44 | 1004.4 |
| 20260505193203 | 76 | 184 | 2.6 | 11.3 | 0.00 | 0.00 | 0.00 | 44 | 1004.1 |
| 20260505192701 | 76 | 252 | 6.1 | 11.3 | 0.00 | 0.00 | 0.00 | 43 | 1004.3 |
| 20260505192158 | 77 | 122 | 13.0 | 20.9 | 0.00 | 0.00 | 0.00 | 42 | 1004.5 |
| 20260505191656 | 77 | 152 | 1.7 | 7.8 | 0.00 | 0.00 | 0.00 | 44 | 1004.5 |
| 20260505191154 | 78 | 171 | 2.6 | 9.6 | 0.00 | 0.00 | 0.00 | 42 | 1004.6 |
| 20260505190650 | 78 | 119 | 5.2 | 7.8 | 0.00 | 0.00 | 0.00 | 42 | 1004.3 |
| 20260505190149 | 77 | 142 | 5.2 | 9.6 | 0.00 | 0.00 | 0.00 | 42 | 1004.5 |
| 20260505185646 | 77 | 184 | 3.5 | 7.8 | 0.00 | 0.00 | 0.00 | 43 | 1004.7 |
| 20260505185142 | 77 | 148 | 4.3 | 12.2 | 0.00 | 0.00 | 0.00 | 43 | 1004.6 |
| 20260505184639 | 77 | 130 | 3.5 | 6.1 | 0.00 | 0.00 | 0.00 | 43 | 1004.8 |
| 20260505184136 | 77 | 194 | 3.5 | 6.1 | 0.00 | 0.00 | 0.00 | 43 | 1004.8 |
| 20260505183633 | 77 | 157 | 3.5 | 7.0 | 0.00 | 0.00 | 0.00 | 42 | 1004.9 |
| 20260505183131 | 77 | 158 | 7.8 | 13.0 | 0.00 | 0.00 | 0.00 | 42 | 1004.9 |
| 20260505182627 | 76 | 208 | 4.3 | 7.8 | 0.00 | 0.00 | 0.00 | 43 | 1004.8 |
| 20260505182124 | 76 | 177 | 3.5 | 7.0 | 0.00 | 0.00 | 0.00 | 43 | 1004.8 |
| 20260505181620 | 76 | 143 | 3.5 | 7.8 | 0.00 | 0.00 | 0.00 | 45 | 1005.2 |
| 20260505181118 | 76 | 195 | 3.5 | 7.0 | 0.00 | 0.00 | 0.00 | 43 | 1005.1 |
| 20260505180613 | 75 | 172 | 1.7 | 3.5 | 0.00 | 0.00 | 0.00 | 44 | 1005.2 |
| 20260505180111 | 75 | 221 | 3.5 | 8.7 | 0.00 | 0.00 | 0.00 | 44 | 1005.3 |
| 20260505175607 | 75 | 202 | 4.3 | 7.0 | 0.00 | 0.00 | 0.00 | 45 | 1005.2 |
| 20260505175103 | 74 | 232 | 0.9 | 8.7 | 0.00 | 0.00 | 0.00 | 46 | 1005.5 |
| 20260505174600 | 74 | 170 | 1.7 | 8.7 | 0.00 | 0.00 | 0.00 | 46 | 1005.6 |
| 20260505174056 | 73 | 208 | 2.6 | 9.6 | 0.00 | 0.00 | 0.00 | 46 | 1005.8 |
| 20260505173553 | 72 | 246 | 3.5 | 7.0 | 0.00 | 0.00 | 0.00 | 48 | 1005.9 |
| 20260505173050 | 72 | 166 | 5.2 | 7.8 | 0.00 | 0.00 | 0.00 | 47 | 1005.7 |
| 20260505172548 | 72 | 219 | 6.1 | 7.8 | 0.00 | 0.00 | 0.00 | 47 | 1006.0 |
| 20260505172045 | 73 | 152 | 3.5 | 12.2 | 0.00 | 0.00 | 0.00 | 46 | 1005.9 |
| 20260505171545 | 73 | 210 | 8.7 | 11.3 | 0.00 | 0.00 | 0.00 | 46 | 1006.0 |
| 20260505171042 | 73 | 205 | 3.5 | 7.8 | 0.00 | 0.00 | 0.00 | 47 | 1006.1 |
| 20260505170539 | 72 | 160 | 4.3 | 7.0 | 0.00 | 0.00 | 0.00 | 47 | 1006.0 |
| 20260505170036 | 72 | 214 | 4.3 | 7.0 | 0.00 | 0.00 | 0.00 | 47 | 1006.1 |
| 20260505165531 | 72 | 199 | 3.5 | 7.8 | 0.00 | 0.00 | 0.00 | 47 | 1006.2 |
| 20260505165026 | 72 | 194 | 1.7 | 7.8 | 0.00 | 0.00 | 0.00 | 47 | 1006.5 |
| 20260505164523 | 72 | 79 | 4.3 | 11.3 | 0.00 | 0.00 | 0.00 | 46 | 1006.6 |
| 20260505164021 | 72 | 196 | 3.5 | 8.7 | 0.00 | 0.00 | 0.00 | 47 | 1006.4 |
| 20260505163520 | 72 | 97 | 5.2 | 7.8 | 0.00 | 0.00 | 0.00 | 47 | 1006.3 |
| 20260505163016 | 73 | 220 | 4.3 | 11.3 | 0.00 | 0.00 | 0.00 | 47 | 1006.6 |
| 20260505162515 | 74 | 202 | 4.3 | 9.6 | 0.00 | 0.00 | 0.00 | 45 | 1006.6 |
| 20260505162011 | 73 | 178 | 1.7 | 5.2 | 0.00 | 0.00 | 0.00 | 47 | 1006.7 |
| 20260505161508 | 72 | 172 | 4.3 | 6.1 | 0.00 | 0.00 | 0.00 | 48 | 1006.8 |
| 20260505161006 | 72 | 202 | 1.7 | 6.1 | 0.00 | 0.00 | 0.00 | 47 | 1006.8 |
| 20260505160503 | 72 | 228 | 3.5 | 7.8 | 0.00 | 0.00 | 0.00 | 46 | 1006.8 |
| 20260505152940 | 70 | 147 | 1.7 | 3.5 | 0.00 | 0.00 | 0.00 | 49 | 1007.6 |
| 20260505152437 | 69 | 184 | 3.5 | 5.2 | 0.00 | 0.00 | 0.00 | 49 | 1007.6 |
| 20260505151938 | 69 | 156 | 2.6 | 7.0 | 0.00 | 0.00 | 0.00 | 49 | 1008.0 |
| 20260505151433 | 69 | 194 | 1.7 | 5.2 | 0.00 | 0.00 | 0.00 | 50 | 1007.7 |
| 20260505150931 | 69 | 156 | 2.6 | 6.1 | 0.00 | 0.00 | 0.00 | 49 | 1007.7 |
| 20260505150428 | 69 | 247 | 0.9 | 1.7 | 0.00 | 0.00 | 0.00 | 50 | 1007.6 |
| 20260505140358 | 66 | 49 | 0.9 | 2.6 | 0.00 | 0.00 | 0.00 | 52 | 1008.0 |
| 20260505124811 | 61 | 151 | 2.6 | 6.1 | 0.00 | 0.00 | 0.00 | 56 | 1008.3 |
| 20260505124308 | 61 | 150 | 4.3 | 6.1 | 0.00 | 0.00 | 0.00 | 57 | 1008.3 |
| 20260505123804 | 60 | 209 | 1.7 | 5.2 | 0.00 | 0.00 | 0.00 | 58 | 1008.4 |
| 20260505123301 | 60 | 146 | 3.5 | 5.2 | 0.00 | 0.00 | 0.00 | 59 | 1008.2 |
| 20260505122757 | 60 | 240 | 1.7 | 2.6 | 0.00 | 0.00 | 0.00 | 60 | 1008.4 |
| 20260505122255 | 59 | 189 | 0.9 | 3.5 | 0.00 | 0.00 | 0.00 | 61 | 1008.5 |
| 20260505121751 | 59 | 180 | 0.0 | 6.1 | 0.00 | 0.00 | 0.00 | 62 | 1008.8 |
| 20260505121248 | 59 | 211 | 2.6 | 7.0 | 0.00 | 0.00 | 0.00 | 61 | 1008.9 |
| 20260505120744 | 58 | 145 | 1.7 | 5.2 | 0.00 | 0.00 | 0.00 | 62 | 1008.7 |
| 20260505120240 | 58 | 161 | 2.6 | 7.0 | 0.00 | 0.00 | 0.00 | 63 | 1008.5 |
| 20260505115739 | 57 | 213 | 2.6 | 3.5 | 0.00 | 0.00 | 0.00 | 64 | 1008.8 |
| 20260505115237 | 57 | 205 | 1.7 | 5.2 | 0.00 | 0.00 | 0.00 | 65 | 1008.7 |
| 20260505114734 | 56 | 147 | 3.5 | 3.5 | 0.00 | 0.00 | 0.00 | 67 | 1008.8 |
| 20260505114230 | 55 | 209 | 2.6 | 3.5 | 0.00 | 0.00 | 0.00 | 68 | 1008.7 |
| 20260505113727 | 55 | 167 | 2.6 | 3.5 | 0.00 | 0.00 | 0.00 | 69 | 1008.8 |
| 20260505113223 | 54 | 229 | 0.9 | 2.6 | 0.00 | 0.00 | 0.00 | 70 | 1008.7 |
| 20260505112720 | 54 | 183 | 1.7 | 2.6 | 0.00 | 0.00 | 0.00 | 70 | 1008.7 |
| 20260505112218 | 54 | 198 | 0.9 | 3.5 | 0.00 | 0.00 | 0.00 | 70 | 1009.0 |
| 20260505111717 | 54 | 146 | 2.6 | 3.5 | 0.00 | 0.00 | 0.00 | 70 | 1008.6 |
| 20260505111214 | 53 | 248 | 0.0 | 2.6 | 0.00 | 0.00 | 0.00 | 71 | 1008.7 |
| 20260505110709 | 53 | 240 | 1.7 | 2.6 | 0.00 | 0.00 | 0.00 | 71 | 1008.8 |
| 20260505110207 | 53 | 237 | 0.9 | 1.7 | 0.00 | 0.00 | 0.00 | 72 | 1008.8 |
| 20260505102143 | 50 | 169 | 0.9 | 1.7 | 0.00 | 0.00 | 0.00 | 76 | 1008.5 |
| 20260505101641 | 50 | 249 | 0.0 | 1.7 | 0.00 | 0.00 | 0.00 | 77 | 1008.7 |
| 20260505101137 | 50 | 249 | 0.0 | 0.0 | 0.00 | 0.00 | 0.00 | 77 | 1008.7 |
| 20260505100633 | 49 | 235 | 0.0 | 0.9 | 0.00 | 0.00 | 0.00 | 77 | 1008.5 |
| 20260505100130 | 49 | 246 | 0.0 | 1.7 | 0.00 | 0.00 | 0.00 | 77 | 1008.5 |
| 20260505095627 | 49 | 243 | 0.0 | 0.0 | 0.00 | 0.00 | 0.00 | 77 | 1008.6 |
| 20260505095123 | 49 | 244 | 0.0 | 0.9 | 0.00 | 0.00 | 0.00 | 77 | 1008.6 |
| 20260505094620 | 49 | 239 | 0.0 | 0.9 | 0.00 | 0.00 | 0.00 | 77 | 1008.4 |
| 20260505094116 | 49 | 251 | 0.0 | 0.9 | 0.00 | 0.00 | 0.00 | 77 | 1008.4 |
| 20260505093612 | 49 | 144 | 0.9 | 2.6 | 0.00 | 0.00 | 0.00 | 77 | 1008.4 |
| 20260505093110 | 49 | 217 | 0.9 | 1.7 | 0.00 | 0.00 | 0.00 | 77 | 1008.6 |
| 20260505092607 | 49 | 254 | 0.0 | 0.0 | 0.00 | 0.00 | 0.00 | 77 | 1008.6 |
| 20260505092106 | 49 | 205 | 0.0 | 0.9 | 0.00 | 0.00 | 0.00 | 77 | 1008.4 |
| 20260505091602 | 49 | 244 | 0.0 | 0.0 | 0.00 | 0.00 | 0.00 | 76 | 1008.5 |
| 20260505091100 | 49 | 291 | 0.0 | 0.0 | 0.00 | 0.00 | 0.00 | 76 | 1008.5 |
| 20260505090558 | 49 | 254 | 0.0 | 0.0 | 0.00 | 0.00 | 0.00 | 76 | 1008.6 |
| 20260505090056 | 49 | 255 | 0.0 | 0.0 | 0.00 | 0.00 | 0.00 | 76 | 1008.5 |
| 20260505085553 | 49 | 199 | 0.9 | 0.9 | 0.00 | 0.00 | 0.00 | 77 | 1008.7 |
| 20260505085051 | 49 | 278 | 0.0 | 0.0 | 0.00 | 0.00 | 0.00 | 77 | 1008.7 |
| 20260505084549 | 49 | 263 | 0.0 | 0.0 | 0.00 | 0.00 | 0.00 | 77 | 1008.6 |
| 20260505084047 | 49 | 266 | 0.0 | 0.0 | 0.00 | 0.00 | 0.00 | 77 | 1008.5 |
| 20260505083544 | 48 | 251 | 0.0 | 0.0 | 0.00 | 0.00 | 0.00 | 77 | 1008.6 |
| 20260505083040 | 48 | 274 | 0.0 | 0.0 | 0.00 | 0.00 | 0.00 | 77 | 1008.8 |
| 20260505082536 | 48 | 276 | 0.0 | 0.0 | 0.00 | 0.00 | 0.00 | 77 | 1008.8 |
| 20260505082033 | 48 | 267 | 0.0 | 0.9 | 0.00 | 0.00 | 0.00 | 77 | 1008.8 |
| 20260505081530 | 48 | 290 | 0.0 | 0.0 | 0.00 | 0.00 | 0.00 | 76 | 1008.6 |
| 20260505081027 | 49 | 280 | 0.0 | 0.0 | 0.00 | 0.00 | 0.00 | 76 | 1008.8 |
| 20260505080523 | 49 | 297 | 0.0 | 0.0 | 0.00 | 0.00 | 0.00 | 76 | 1008.7 |
| 20260505080020 | 49 | 250 | 0.0 | 0.9 | 0.00 | 0.00 | 0.00 | 76 | 1008.7 |
| 20260505075516 | 49 | 281 | 0.0 | 0.0 | 0.00 | 0.00 | 0.00 | 76 | 1008.8 |
| 20260505075013 | 49 | 201 | 0.0 | 0.9 | 0.00 | 0.00 | 0.00 | 76 | 1008.7 |
| 20260505074510 | 49 | 271 | 0.0 | 0.0 | 0.00 | 0.00 | 0.00 | 75 | 1008.7 |
| 20260505074007 | 49 | 271 | 0.0 | 0.0 | 0.00 | 0.00 | 0.00 | 75 | 1008.7 |
| 20260505073504 | 50 | 253 | 0.0 | 0.0 | 0.00 | 0.00 | 0.00 | 74 | 1008.6 |
| 20260505073002 | 50 | 237 | 0.9 | 1.7 | 0.00 | 0.00 | 0.00 | 74 | 1008.7 |
| 20260505072458 | 50 | 158 | 0.9 | 0.9 | 0.00 | 0.00 | 0.00 | 73 | 1008.8 |
| 20260505071954 | 50 | 253 | 0.0 | 1.7 | 0.00 | 0.00 | 0.00 | 73 | 1008.7 |
| 20260505071450 | 50 | 192 | 0.9 | 1.7 | 0.00 | 0.00 | 0.00 | 74 | 1008.8 |
| 20260505070948 | 50 | 228 | 0.9 | 0.9 | 0.00 | 0.00 | 0.00 | 74 | 1008.5 |
| 20260505070445 | 50 | 236 | 0.0 | 0.0 | 0.00 | 0.00 | 0.00 | 75 | 1008.6 |
| 20260505065940 | 50 | 244 | 0.0 | 0.9 | 0.00 | 0.00 | 0.00 | 75 | 1008.8 |
| 20260505065437 | 50 | 194 | 0.9 | 1.7 | 0.00 | 0.00 | 0.00 | 75 | 1008.5 |
| 20260505064934 | 49 | 221 | 1.7 | 1.7 | 0.00 | 0.00 | 0.00 | 75 | 1008.6 |
| 20260505064431 | 49 | 211 | 0.0 | 0.9 | 0.00 | 0.00 | 0.00 | 75 | 1008.6 |
| 20260505063929 | 49 | 257 | 0.0 | 0.9 | 0.00 | 0.00 | 0.00 | 75 | 1008.5 |
| 20260505063425 | 50 | 264 | 0.0 | 0.9 | 0.00 | 0.00 | 0.00 | 75 | 1008.5 |
| 20260505062922 | 50 | 226 | 0.0 | 1.7 | 0.00 | 0.00 | 0.00 | 75 | 1008.5 |
| 20260505062419 | 50 | 257 | 0.0 | 1.7 | 0.00 | 0.00 | 0.00 | 75 | 1008.6 |
| 20260505061915 | 50 | 241 | 0.9 | 0.9 | 0.00 | 0.00 | 0.00 | 75 | 1008.5 |
| 20260505061414 | 50 | 148 | 0.0 | 0.0 | 0.00 | 0.00 | 0.00 | 75 | 1008.8 |
| 20260505060911 | 49 | 209 | 0.0 | 0.0 | 0.00 | 0.00 | 0.00 | 76 | 1008.5 |
| 20260505060408 | 49 | 265 | 0.0 | 0.9 | 0.00 | 0.00 | 0.00 | 76 | 1008.5 |
| 20260505055904 | 49 | 149 | 0.0 | 0.9 | 0.00 | 0.00 | 0.00 | 77 | 1008.5 |
| 20260505055400 | 49 | 117 | 0.9 | 0.9 | 0.00 | 0.00 | 0.00 | 77 | 1008.5 |
| 20260505054857 | 49 | 244 | 0.0 | 0.9 | 0.00 | 0.00 | 0.00 | 77 | 1008.6 |
| 20260505054354 | 49 | 325 | 0.0 | 0.9 | 0.00 | 0.00 | 0.00 | 77 | 1008.5 |
| 20260505053853 | 49 | 248 | 0.0 | 0.9 | 0.00 | 0.00 | 0.00 | 77 | 1008.4 |
| 20260505053350 | 49 | 228 | 0.0 | 0.9 | 0.00 | 0.00 | 0.00 | 77 | 1008.4 |
| 20260505052846 | 49 | 194 | 0.9 | 0.9 | 0.00 | 0.00 | 0.00 | 77 | 1008.5 |
| 20260505052343 | 49 | 223 | 0.9 | 1.7 | 0.00 | 0.00 | 0.00 | 77 | 1008.4 |
| 20260505051840 | 49 | 201 | 0.0 | 0.9 | 0.00 | 0.00 | 0.00 | 78 | 1008.4 |
| 20260505051337 | 49 | 160 | 1.7 | 1.7 | 0.00 | 0.00 | 0.00 | 78 | 1008.4 |
| 20260505050836 | 49 | 260 | 0.0 | 1.7 | 0.00 | 0.00 | 0.00 | 78 | 1008.4 |
| 20260505050334 | 49 | 128 | 0.0 | 2.6 | 0.00 | 0.00 | 0.00 | 78 | 1008.3 |
| 20260505041301 | 49 | 253 | 0.0 | 0.0 | 0.00 | 0.00 | 0.00 | 78 | 1008.1 |
| 20260505040758 | 49 | 253 | 0.0 | 0.0 | 0.00 | 0.00 | 0.00 | 78 | 1008.2 |
| 20260505040256 | 49 | 253 | 0.0 | 0.0 | 0.00 | 0.00 | 0.00 | 77 | 1008.1 |
| 20260505035752 | 49 | 252 | 0.0 | 0.0 | 0.00 | 0.02 | 0.02 | 77 | 1008.1 |
| 20260505035248 | 50 | 260 | 0.0 | 0.0 | 0.00 | 0.02 | 0.02 | 77 | 1008.3 |
| 20260505034745 | 50 | 250 | 0.0 | 0.9 | 0.00 | 0.02 | 0.02 | 78 | 1008.2 |
| 20260505034242 | 49 | 268 | 0.0 | 0.0 | 0.00 | 0.02 | 0.02 | 79 | 1008.0 |
| 20260505033738 | 49 | 271 | 0.0 | 0.0 | 0.00 | 0.02 | 0.02 | 80 | 1008.2 |
| 20260505033236 | 49 | 254 | 0.0 | 0.0 | 0.00 | 0.02 | 0.02 | 82 | 1008.0 |
| 20260505032734 | 48 | 269 | 0.0 | 0.0 | 0.00 | 0.02 | 0.02 | 84 | 1007.9 |
| 20260505032230 | 48 | 260 | 0.0 | 0.0 | 0.00 | 0.02 | 0.02 | 85 | 1007.8 |
| 20260505031728 | 48 | 260 | 0.0 | 0.0 | 0.00 | 0.02 | 0.02 | 85 | 1007.8 |
| 20260505031224 | 48 | 260 | 0.0 | 0.0 | 0.00 | 0.02 | 0.02 | 84 | 1008.2 |
| 20260505030721 | 48 | 260 | 0.0 | 0.0 | 0.00 | 0.02 | 0.02 | 84 | 1008.0 |
| 20260505030217 | 48 | 260 | 0.0 | 0.0 | 0.00 | 0.02 | 0.02 | 84 | 1007.9 |
| 20260505025713 | 48 | 260 | 0.0 | 0.0 | 0.00 | 0.02 | 0.02 | 83 | 1008.1 |
| 20260505025211 | 49 | 260 | 0.0 | 0.0 | 0.00 | 0.02 | 0.02 | 82 | 1008.1 |
| 20260505024709 | 49 | 260 | 0.0 | 0.0 | 0.00 | 0.02 | 0.02 | 82 | 1007.9 |
| 20260505024206 | 49 | 260 | 0.0 | 0.0 | 0.00 | 0.02 | 0.02 | 82 | 1007.8 |
| 20260505023703 | 49 | 260 | 0.0 | 0.0 | 0.00 | 0.02 | 0.02 | 81 | 1008.1 |
| 20260505023200 | 49 | 260 | 0.0 | 0.0 | 0.00 | 0.02 | 0.02 | 81 | 1008.2 |
| 20260505022658 | 50 | 260 | 0.0 | 0.0 | 0.00 | 0.02 | 0.02 | 81 | 1008.2 |
| 20260505022154 | 50 | 260 | 0.0 | 0.0 | 0.00 | 0.02 | 0.02 | 80 | 1007.9 |
| 20260505021651 | 50 | 260 | 0.0 | 0.0 | 0.00 | 0.02 | 0.02 | 79 | 1008.2 |
| 20260505021148 | 50 | 260 | 0.0 | 0.0 | 0.00 | 0.02 | 0.02 | 78 | 1008.2 |
| 20260505020643 | 51 | 260 | 0.0 | 0.0 | 0.00 | 0.02 | 0.02 | 78 | 1008.3 |
| 20260505020140 | 51 | 260 | 0.0 | 0.0 | 0.00 | 0.02 | 0.02 | 78 | 1007.9 |
| 20260505015637 | 50 | 259 | 0.0 | 0.0 | 0.00 | 0.02 | 0.02 | 78 | 1008.2 |
| 20260505015133 | 51 | 290 | 0.0 | 0.0 | 0.00 | 0.02 | 0.02 | 77 | 1008.2 |
| 20260505014630 | 51 | 290 | 0.0 | 0.0 | 0.00 | 0.02 | 0.02 | 77 | 1008.2 |
| 20260505014127 | 51 | 290 | 0.0 | 0.0 | 0.00 | 0.02 | 0.02 | 77 | 1008.3 |
| 20260505013625 | 51 | 290 | 0.0 | 0.0 | 0.00 | 0.02 | 0.02 | 77 | 1008.1 |
| 20260505013122 | 51 | 290 | 0.0 | 0.0 | 0.00 | 0.02 | 0.02 | 76 | 1008.1 |
| 20260505012620 | 51 | 292 | 0.0 | 0.0 | 0.00 | 0.02 | 0.02 | 76 | 1008.0 |
| 20260505012111 | 51 | 302 | 0.0 | 0.0 | 0.00 | 0.02 | 0.02 | 76 | 1008.1 |
| 20260505011607 | 51 | 304 | 0.0 | 0.9 | 0.00 | 0.02 | 0.02 | 76 | 1007.9 |
| 20260505011105 | 51 | 283 | 0.0 | 0.0 | 0.00 | 0.02 | 0.02 | 76 | 1008.0 |
| 20260505010604 | 51 | 254 | 0.0 | 0.0 | 0.00 | 0.02 | 0.02 | 76 | 1007.9 |
| 20260505005557 | 51 | 255 | 0.0 | 0.0 | 0.00 | 0.02 | 0.02 | 75 | 1007.6 |
| 20260505005055 | 51 | 255 | 0.0 | 0.0 | 0.00 | 0.02 | 0.02 | 75 | 1007.5 |
| 20260505004552 | 52 | 254 | 0.0 | 0.0 | 0.00 | 0.02 | 0.02 | 74 | 1007.5 |
| 20260505004049 | 52 | 254 | 0.0 | 0.0 | 0.00 | 0.02 | 0.02 | 74 | 1007.6 |
| 20260505003546 | 52 | 254 | 0.0 | 0.0 | 0.00 | 0.02 | 0.02 | 74 | 1007.2 |
| 20260505003043 | 52 | 254 | 0.0 | 0.0 | 0.00 | 0.02 | 0.02 | 72 | 1007.1 |
| 20260505002543 | 53 | 254 | 0.0 | 0.0 | 0.00 | 0.02 | 0.02 | 71 | 1007.0 |
| 20260505002037 | 53 | 254 | 0.0 | 0.0 | 0.00 | 0.02 | 0.02 | 71 | 1006.9 |
| 20260505001534 | 54 | 254 | 0.0 | 0.0 | 0.00 | 0.02 | 0.02 | 70 | 1006.8 |
| 20260505001031 | 55 | 254 | 0.0 | 0.0 | 0.00 | 0.02 | 0.02 | 70 | 1006.8 |
| 20260505000528 | 55 | 254 | 0.0 | 0.0 | 0.00 | 0.02 | 0.02 | 68 | 1006.7 |
| 20260505000026 | 56 | 254 | 0.0 | 0.0 | 0.00 | 0.02 | 0.02 | 66 | 1006.4 |
| 20260504235522 | 57 | 254 | 0.0 | 0.0 | 0.00 | 0.02 | 0.02 | 64 | 1006.5 |
| 20260504235019 | 57 | 253 | 0.0 | 0.0 | 0.00 | 0.02 | 0.02 | 61 | 1006.6 |
| 20260504234516 | 58 | 253 | 0.0 | 0.0 | 0.00 | 0.02 | 0.02 | 59 | 1006.5 |
| 20260504234013 | 59 | 254 | 0.0 | 0.0 | 0.00 | 0.02 | 0.02 | 56 | 1006.5 |
| 20260504233508 | 59 | 254 | 0.0 | 0.0 | 0.00 | 0.02 | 0.02 | 54 | 1006.5 |
| 20260504233006 | 60 | 254 | 0.0 | 0.0 | 0.00 | 0.02 | 0.02 | 55 | 1006.6 |
| 20260504232502 | 61 | 253 | 0.0 | 0.0 | 0.00 | 0.02 | 0.02 | 53 | 1006.4 |
| 20260504232000 | 61 | 252 | 0.0 | 0.0 | 0.00 | 0.02 | 0.02 | 52 | 1006.4 |
| 20260504231456 | 62 | 255 | 0.0 | 0.0 | 0.00 | 0.02 | 0.02 | 49 | 1006.3 |
| 20260504230952 | 62 | 255 | 0.0 | 0.0 | 0.00 | 0.02 | 0.02 | 49 | 1006.1 |
| 20260504230449 | 63 | 265 | 0.0 | 0.0 | 0.00 | 0.02 | 0.02 | 48 | 1006.2 |
| 20260504225948 | 63 | 262 | 0.0 | 0.0 | 0.00 | 0.02 | 0.02 | 46 | 1006.1 |
| 20260504225444 | 64 | 270 | 0.0 | 0.9 | 0.00 | 0.02 | 0.02 | 47 | 1006.3 |
| 20260504224942 | 64 | 268 | 0.0 | 0.0 | 0.00 | 0.02 | 0.02 | 46 | 1006.3 |
| 20260504224438 | 64 | 243 | 0.0 | 1.7 | 0.00 | 0.02 | 0.02 | 45 | 1006.1 |
| 20260504223936 | 64 | 276 | 0.9 | 1.7 | 0.00 | 0.02 | 0.02 | 45 | 1006.1 |
| 20260504223431 | 64 | 259 | 0.0 | 2.6 | 0.00 | 0.02 | 0.02 | 45 | 1006.2 |
| 20260504222927 | 65 | 248 | 0.0 | 0.9 | 0.00 | 0.02 | 0.02 | 46 | 1005.9 |
| 20260504222425 | 65 | 253 | 0.9 | 2.6 | 0.00 | 0.02 | 0.02 | 45 | 1006.1 |
| 20260504221923 | 64 | 243 | 0.0 | 2.6 | 0.00 | 0.02 | 0.02 | 46 | 1006.2 |
| 20260504221419 | 65 | 338 | 1.7 | 2.6 | 0.00 | 0.02 | 0.02 | 45 | 1006.1 |
| 20260504220916 | 64 | 268 | 0.0 | 0.9 | 0.00 | 0.02 | 0.02 | 47 | 1006.1 |
| 20260504220413 | 64 | 269 | 1.7 | 2.6 | 0.00 | 0.02 | 0.02 | 46 | 1006.0 |
| 20260504215910 | 65 | 231 | 0.0 | 3.5 | 0.00 | 0.02 | 0.02 | 46 | 1006.1 |
| 20260504215407 | 65 | 281 | 0.9 | 2.6 | 0.00 | 0.02 | 0.02 | 45 | 1006.1 |
| 20260504214903 | 65 | 283 | 0.0 | 0.9 | 0.00 | 0.02 | 0.02 | 47 | 1006.2 |
| 20260504214359 | 65 | 269 | 0.0 | 1.7 | 0.00 | 0.02 | 0.02 | 46 | 1006.2 |